Weather History for KMML - January, 2013

Change the Weather History Date:

Wednesday, January 9, 2013

  Actual Average Record
Temperature  
Mean Temperature 30 °F -  
Max Temperature 37 °F 16 °F 55 °F (2012)
Min Temperature 24 °F 0 °F -29 °F (1977)
Degree Days  
Heating Degree Days 34    
Moisture  
Dew Point 23 °F    
Average Humidity 69    
Maximum Humidity 80    
Minimum Humidity 56    
Precipitation  
Precipitation 0.00 in - - ()
Sea Level Pressure  
Sea Level Pressure 30.17 in    
Wind  
Wind Speed 16 mph (SW)    
Max Wind Speed 29 mph    
Max Gust Speed 33 mph    
Visibility 10 miles    
Events      
Averages and records for this station are not official NWS values.
T = Trace of Precipitation, MM = Missing Value Source: NWS Daily Summary

Daily Weather History Graph

Daily Weather History Graph

Search for Another Location

Airport or City:

Trip Planner

Search our weather history database for the weather conditions in past years. The results will help you decide how hot, cold, wet, or windy it might be!

Date:

Astronomy

Jan. 09, 2013 Rise Set
Actual Time 7:58 AM CST 5:02 PM CST
Civil Twilight 7:25 AM CST 5:35 PM CST
Nautical Twilight 6:49 AM CST 6:11 PM CST
Astronomical Twilight 6:14 AM CST 6:47 PM CST
Moon 5:39 AM CST (1/9) 3:05 PM CST (1/9)
Length of Visible Light 10h 09m
Length of Day
9h 04m
Waning Crescent, 6% of the Moon is Illuminated
Jan 9
Waning Crescent
Jan 11
New
Jan 18
First Quarter
Jan 26
Full
Feb 3
Last Quarter

Hourly Weather History & Observations

Time (CST) Temp. Windchill Dew Point Humidity Pressure Visibility Wind Dir Wind Speed Gust Speed Precip Events Conditions
12:15 AM 35.6 °F 25.2 °F 26.6 °F 70% 29.97 in 10.0 mi West 18.4 mph - N/A   Mostly Cloudy
12:35 AM 35.6 °F 25.5 °F 26.6 °F 70% 29.97 in 10.0 mi WSW 17.3 mph - N/A   Overcast
12:55 AM 35.6 °F 26.6 °F 26.6 °F 70% 29.97 in 10.0 mi WSW 13.8 mph - N/A   Mostly Cloudy
1:15 AM 33.8 °F 22.2 °F 26.6 °F 75% 29.97 in 10.0 mi West 20.7 mph - N/A   Partly Cloudy
1:35 AM 33.8 °F 21.9 °F 26.6 °F 75% 29.98 in 10.0 mi West 21.9 mph - N/A   Clear
1:55 AM 33.8 °F 21.3 °F 26.6 °F 75% 29.99 in 10.0 mi WSW 24.2 mph - N/A   Clear
2:15 AM 33.8 °F 21.6 °F 26.6 °F 75% 30.00 in - West 23.0 mph - N/A   Clear
2:35 AM 33.8 °F 21.9 °F 26.6 °F 75% 30.01 in 10.0 mi West 21.9 mph - N/A   Clear
2:55 AM 35.6 °F 22.7 °F 24.8 °F 65% 30.02 in 10.0 mi West 28.8 mph - N/A   Clear
3:15 AM 33.8 °F 20.8 °F 24.8 °F 70% 30.04 in 10.0 mi West 26.5 mph - N/A   Clear
3:35 AM 33.8 °F 21.3 °F 24.8 °F 70% 30.05 in 10.0 mi West 24.2 mph - N/A   Clear
3:55 AM 33.8 °F 21.3 °F 24.8 °F 70% 30.06 in 10.0 mi West 24.2 mph 31.1 mph N/A   Clear
4:15 AM 33.8 °F 21.9 °F 24.8 °F 70% 30.07 in 10.0 mi WNW 21.9 mph 27.6 mph N/A   Clear
4:35 AM 33.8 °F 22.5 °F 23.0 °F 65% 30.08 in 10.0 mi WNW 19.6 mph 25.3 mph N/A   Clear
4:55 AM 32.0 °F 19.2 °F 21.2 °F 64% 30.08 in 10.0 mi WNW 23.0 mph - N/A   Clear
5:15 AM 32.0 °F 18.9 °F 21.2 °F 64% 30.08 in 10.0 mi WNW 24.2 mph - N/A   Clear
5:35 AM 30.2 °F 16.8 °F 21.2 °F 69% 30.09 in 10.0 mi WNW 23.0 mph - N/A   Clear
5:55 AM 32.0 °F 19.8 °F 19.4 °F 60% 30.10 in 10.0 mi WNW 20.7 mph - N/A   Clear
6:15 AM 30.2 °F 18.1 °F 19.4 °F 64% 30.11 in 10.0 mi WNW 18.4 mph - N/A   Clear
6:35 AM 30.2 °F 17.8 °F 19.4 °F 64% 30.12 in 10.0 mi WNW 19.6 mph - N/A   Clear
7:15 AM 26.6 °F 16.2 °F 19.4 °F 74% 30.14 in 10.0 mi WNW 11.5 mph - N/A   Clear
7:35 AM 28.4 °F 18.0 °F 19.4 °F 69% 30.14 in 10.0 mi WNW 12.7 mph - N/A   Clear
7:55 AM 24.8 °F 12.9 °F 15.8 °F 69% 30.15 in 10.0 mi West 13.8 mph - N/A   Clear
8:15 AM 28.4 °F 18.5 °F 19.4 °F 69% 30.15 in 10.0 mi WNW 11.5 mph - N/A   Clear
8:35 AM 26.6 °F 16.2 °F 17.6 °F 69% 30.16 in 10.0 mi WNW 11.5 mph - N/A   Clear
8:55 AM 26.6 °F 17.5 °F 17.6 °F 69% 30.18 in 10.0 mi WNW 9.2 mph - N/A   Clear
9:15 AM 26.6 °F 18.2 °F 17.6 °F 69% 30.19 in 10.0 mi West 8.1 mph - N/A   Clear
9:35 AM 26.6 °F 17.5 °F 15.8 °F 64% 30.20 in 10.0 mi WNW 9.2 mph - N/A   Clear
9:55 AM 26.6 °F 19.1 °F 17.6 °F 69% 30.21 in 10.0 mi WNW 6.9 mph - N/A   Clear
10:15 AM 26.6 °F 19.1 °F 17.6 °F 69% 30.23 in 10.0 mi West 6.9 mph - N/A   Clear
10:35 AM 28.4 °F 21.2 °F 19.4 °F 69% 30.24 in 10.0 mi West 6.9 mph - N/A   Clear
10:55 AM 28.4 °F 20.4 °F 21.2 °F 74% 30.26 in 10.0 mi West 8.1 mph - N/A   Clear
11:15 AM 30.2 °F 23.4 °F 21.2 °F 69% 30.26 in 10.0 mi West 6.9 mph - N/A   Clear
11:35 AM 33.8 °F 30.8 °F 23.0 °F 65% 30.28 in 10.0 mi WSW 3.5 mph - N/A   Clear
11:55 AM 37.4 °F 33.8 °F 23.0 °F 56% 30.29 in 10.0 mi SW 4.6 mph - N/A   Clear
12:15 PM 33.8 °F 29.6 °F 23.0 °F 65% 30.30 in 10.0 mi WSW 4.6 mph - N/A   Clear
12:35 PM 35.6 °F 29.2 °F 21.2 °F 56% 30.30 in 10.0 mi WSW 8.1 mph - N/A   Clear
12:55 PM 35.6 °F 32.8 °F 24.8 °F 65% 30.29 in 10.0 mi WSW 3.5 mph - N/A   Clear
1:15 PM 35.6 °F 28.6 °F 24.8 °F 65% 30.30 in 10.0 mi SW 9.2 mph - N/A   Clear
1:35 PM 35.6 °F 25.9 °F 24.8 °F 65% 30.31 in 10.0 mi SSW 16.1 mph - N/A   Clear
1:55 PM 35.6 °F 28.0 °F 24.8 °F 65% 30.30 in 10.0 mi SSW 10.4 mph - N/A   Clear
2:15 PM 35.6 °F 27.5 °F 24.8 °F 65% 30.30 in 10.0 mi SSW 11.5 mph - N/A   Clear
2:35 PM 35.6 °F 27.1 °F 23.0 °F 60% 30.30 in 10.0 mi South 12.7 mph - N/A   Clear
2:55 PM 33.8 °F 27.7 °F 24.8 °F 70% 30.29 in 10.0 mi South 6.9 mph - N/A   Clear
3:15 PM 35.6 °F 28.0 °F 24.8 °F 65% 30.29 in 10.0 mi SSE 10.4 mph - N/A   Clear
3:35 PM 33.8 °F 25.8 °F 24.8 °F 70% 30.29 in 10.0 mi South 10.4 mph - N/A   Clear
3:55 PM 33.8 °F 25.8 °F 24.8 °F 70% 30.29 in 10.0 mi SSE 10.4 mph - N/A   Clear
4:15 PM 33.8 °F 26.4 °F 24.8 °F 70% 30.27 in 10.0 mi SE 9.2 mph - N/A   Clear
4:35 PM 33.8 °F 26.4 °F 24.8 °F 70% 30.26 in 10.0 mi SE 9.2 mph - N/A   Clear
4:55 PM 32.0 °F 23.0 °F 24.8 °F 75% 30.25 in 10.0 mi SSE 11.5 mph - N/A   Clear
5:15 PM 30.2 °F 20.8 °F 24.8 °F 80% 30.25 in 10.0 mi SSE 11.5 mph - N/A   Clear
5:35 PM 30.2 °F 20.8 °F 24.8 °F 80% 30.25 in 10.0 mi SSE 11.5 mph - N/A   Clear
5:55 PM 30.2 °F 21.3 °F 23.0 °F 75% 30.24 in 10.0 mi SSE 10.4 mph - N/A   Clear
6:15 PM 30.2 °F 20.8 °F 21.2 °F 69% 30.24 in 10.0 mi SSE 11.5 mph - N/A   Clear
6:35 PM 28.4 °F 19.1 °F 21.2 °F 74% 30.23 in 10.0 mi SSE 10.4 mph - N/A   Clear
6:55 PM 28.4 °F 18.0 °F 21.2 °F 74% 30.24 in 10.0 mi SSE 12.7 mph - N/A   Clear
7:55 PM 32.0 °F 22.1 °F 23.0 °F 69% 30.22 in 10.0 mi South 13.8 mph - N/A   Clear
8:15 PM 30.2 °F 20.8 °F 23.0 °F 75% 30.21 in 10.0 mi SSE 11.5 mph - N/A   Clear
8:35 PM 33.8 °F 24.8 °F 24.8 °F 70% 30.21 in 10.0 mi South 12.7 mph - N/A   Clear
8:55 PM 33.8 °F 23.9 °F 24.8 °F 70% 30.20 in 10.0 mi South 15.0 mph - N/A   Clear
9:15 PM 33.8 °F 24.8 °F 26.6 °F 75% 30.19 in 10.0 mi South 12.7 mph - N/A   Clear
9:35 PM 35.6 °F 27.5 °F 26.6 °F 70% 30.18 in 10.0 mi South 11.5 mph - N/A   Clear
9:55 PM 35.6 °F 26.6 °F 26.6 °F 70% 30.17 in 10.0 mi South 13.8 mph - N/A   Clear
10:15 PM 35.6 °F 23.7 °F 26.6 °F 70% 30.18 in 10.0 mi SSW 24.2 mph 29.9 mph N/A   Clear
10:35 PM 35.6 °F 23.7 °F 26.6 °F 70% 30.17 in 10.0 mi SSW 24.2 mph 29.9 mph N/A   Clear
10:55 PM 35.6 °F 23.7 °F 26.6 °F 70% 30.17 in 10.0 mi SSW 24.2 mph 32.2 mph N/A   Clear
11:15 PM 35.6 °F 22.7 °F 26.6 °F 70% 30.16 in 10.0 mi SSW 28.8 mph - N/A   Clear
11:35 PM 35.6 °F 23.0 °F 26.6 °F 70% 30.15 in 10.0 mi SSW 27.6 mph 33.4 mph N/A   Clear
11:55 PM 35.6 °F 23.2 °F 26.6 °F 70% 30.15 in 10.0 mi SSW 26.5 mph - N/A   Clear